Location: Dompnac
(44.5644°N, 4.1026°E)
Time: 17:55:01
(UTC+00:00)

Cosmos 1634 Rocket - Pass Details

Date: 21 January 2021
Orbit: 961 x 991 km, 82.9° (Epoch: 05 March)

Event Time Altitude Azimuth Distance (km) Brightness Sun altitude
Rises 18:35:24 0° 337° (NNW) 3,679 7.2 -20.7°
Reaches altitude 10° 18:38:43 10° 320° (NW) 2,732 6.8 -21.3°
Maximum altitude 18:42:43 18° 279° (W) 2,199 6.7 -22.0°
Drops below altitude 10° 18:46:44 10° 239° (WSW) 2,734 7.2 -22.8°
Sets 18:50:04 0° 221° (SW) 3,682 7.7 -23.3°
